Weather in Samara

Russia / Samara Oblast     53°11′43″N   50°06′06″E
temp.,
°C
wind,
m/s
gust,
m/s
humid.,
%
clouds,
%
prec.,
mm/h
press.,
hPa
HPBL,
m
3 march, wed
wed301:00−1w2596100 0.1 1002201
04:00−5nw229487 0.1 100321
07:00−5wnw129599 0.0 100222
10:00−3wnw369389 0.0 1003353
13:00−1nw478683 0.0 1004785
16:00−2nw478592 0.1 1005984
19:00−7wnw389086 0.1 1006221
22:00−7wnw3109271 0.1 1008337
4 march, thu
thu401:00−10w239340 0.0 100849
04:00−13wsw239632 0.0 100954
07:00−12wsw399769 0.0 1007240
10:00−7sw5119484 0.1 1006469
13:00−3sw61292100 0.2 1003839
16:00−1sw81596100 1.9 10011067
19:00+1wsw71488100 0.9 10001244
22:000wsw51389100 0.9 1003813
5 march, fri
fri501:00−1wsw51197100 0.6 1003696
04:00−1sw51097100 1.8 1002630
07:00−2sw41197100 0.9 1001601
10:000sw51199100 3.1 1000760
13:00+1wsw411100100 2.4 1000626
16:000nw4993100 3.4 1002550
19:00−5nnw389388 0.1 1006214
22:00−10nnw229252 0.1 101128
6 march, sat
sat601:00−14n11841 0.0 101320
04:00−14s018238 0.0 101420
07:00−15sse118796 0.0 101420
10:00−10sse128698 0.0 1013164
13:00−6s1288100 0.0 1012262
16:00−5wsw1391100 0.0 1010403
19:00−8wnw2394100 0.0 101078
22:00−10nw3119158 0.0 1011321
7 march, sun
sun701:00−13nw310909 0.0 1011244
04:00−17wnw26915 0.0 1013145
07:00−19wnw22953 0.0 101420
10:00−14wsw25912 0.0 1015302
13:00−11sw369035 0.0 1014471
16:00−10ssw478938 0.0 1012530
19:00−11ssw41295100 0.1 1010575
22:00−8ssw61391100 0.3 1007857